RPB7432 SKRG-MROC

Flight info

Callsign RPB7432
Flight time 1h 33m
Altitude 38000
Route OPMEL3C OPMEL DCT KUBEK UP790 TBG UG440 ISEBA CUARE3I
Aircraft B738/M-SDE2E3FGHIRWXY/LB1

Departure

Time 2026-04-29 03:42
Airport Jose Maria Córdova International Airport (SKRG)

Arrival

Time 2026-04-29 05:15
Airport Juan Santamaría International Airport (MROC)
Time Latitude Longitude Altitude Speed Heading
2026-04-29 02:26 6.17250 -75.42730 7020 ft 0 kts 229°
2026-04-29 03:21 6.17267 -75.42713 7020 ft 4 kts 221°
2026-04-29 03:21 6.17288 -75.42697 7018 ft 4 kts 209°
2026-04-29 03:22 6.17313 -75.42686 7021 ft 4 kts 189°
2026-04-29 03:22 6.17337 -75.42688 7020 ft 4 kts 144°
2026-04-29 03:22 6.17353 -75.42705 7019 ft 4 kts 130°
2026-04-29 03:22 6.17369 -75.42726 7017 ft 2 kts 116°
2026-04-29 03:23 6.17378 -75.42746 7018 ft 4 kts 113°
2026-04-29 03:23 6.17388 -75.42771 7020 ft 4 kts 109°
2026-04-29 03:23 6.17396 -75.42793 7017 ft 1 kts 109°
2026-04-29 03:23 6.17396 -75.42794 7017 ft 0 kts 109°
2026-04-29 03:33 6.17393 -75.42785 7018 ft 3 kts 109°
2026-04-29 03:33 6.17382 -75.42753 7019 ft 7 kts 109°
2026-04-29 03:33 6.17361 -75.42700 7018 ft 10 kts 113°
2026-04-29 03:34 6.17316 -75.42636 7019 ft 12 kts 145°
2026-04-29 03:34 6.17225 -75.42619 7017 ft 14 kts 172°
2026-04-29 03:34 6.17186 -75.42526 7014 ft 18 kts 98°
2026-04-29 03:34 6.17090 -75.42486 7010 ft 18 kts 179°
2026-04-29 03:35 6.16955 -75.42486 7013 ft 21 kts 180°
2026-04-29 03:35 6.16842 -75.42485 6999 ft 17 kts 179°
2026-04-29 03:35 6.16721 -75.42483 6991 ft 17 kts 179°
2026-04-29 03:35 6.16603 -75.42482 6987 ft 17 kts 178°
2026-04-29 03:36 6.16488 -75.42481 6984 ft 17 kts 179°
2026-04-29 03:36 6.16366 -75.42480 6982 ft 18 kts 179°
2026-04-29 03:36 6.16240 -75.42478 6978 ft 18 kts 179°
2026-04-29 03:36 6.16118 -75.42478 6976 ft 17 kts 180°
2026-04-29 03:37 6.16000 -75.42476 6975 ft 17 kts 180°
2026-04-29 03:37 6.15887 -75.42476 6974 ft 16 kts 180°
2026-04-29 03:37 6.15778 -75.42476 6974 ft 15 kts 179°
2026-04-29 03:37 6.15673 -75.42475 6974 ft 15 kts 179°
2026-04-29 03:38 6.15573 -75.42473 6975 ft 14 kts 179°
2026-04-29 03:38 6.15477 -75.42471 6975 ft 13 kts 178°
2026-04-29 03:38 6.15385 -75.42468 6976 ft 13 kts 177°
2026-04-29 03:38 6.15287 -75.42469 6976 ft 15 kts 181°
2026-04-29 03:39 6.15177 -75.42471 6976 ft 17 kts 181°
2026-04-29 03:39 6.15047 -75.42472 6977 ft 20 kts 180°
2026-04-29 03:39 6.14903 -75.42480 6975 ft 22 kts 188°
2026-04-29 03:39 6.14816 -75.42426 6971 ft 5 kts 92°
2026-04-29 03:40 6.14819 -75.42388 6972 ft 5 kts 73°
2026-04-29 03:40 6.14849 -75.42366 6973 ft 5 kts 32°
2026-04-29 03:40 6.14880 -75.42346 6974 ft 5 kts 32°
2026-04-29 03:40 6.14911 -75.42327 6975 ft 5 kts 31°
2026-04-29 03:41 6.14943 -75.42307 6976 ft 6 kts 31°
2026-04-29 03:41 6.14986 -75.42299 6977 ft 6 kts
2026-04-29 03:41 6.15168 -75.42300 6979 ft 58 kts 359°
2026-04-29 03:41 6.15781 -75.42303 6976 ft 119 kts
2026-04-29 03:42 6.16794 -75.42314 6997 ft 169 kts 358°
2026-04-29 03:42 6.18041 -75.42334 7397 ft 184 kts 359°
2026-04-29 03:42 6.19342 -75.42346 8073 ft 189 kts 358°
2026-04-29 03:42 6.20679 -75.42361 8756 ft 195 kts 359°
2026-04-29 03:43 6.22107 -75.42367 9067 ft 217 kts 359°
2026-04-29 03:43 6.23692 -75.42370 9263 ft 239 kts 359°
2026-04-29 03:43 6.25431 -75.42376 9463 ft 260 kts 359°
2026-04-29 03:43 6.27286 -75.42386 9851 ft 275 kts 359°
2026-04-29 03:44 6.29298 -75.42398 9998 ft 303 kts 359°
2026-04-29 03:44 6.31500 -75.42412 10233 ft 329 kts 359°
2026-04-29 03:44 6.33830 -75.42424 10804 ft 340 kts 360°
2026-04-29 03:44 6.36213 -75.42405 11585 ft 344 kts
2026-04-29 03:45 6.38621 -75.42375 12403 ft 347 kts
2026-04-29 03:45 6.41006 -75.42541 13135 ft 351 kts 345°
2026-04-29 03:45 6.43213 -75.43585 13884 ft 354 kts 322°
2026-04-29 03:45 6.44900 -75.45383 14637 ft 356 kts 302°
2026-04-29 03:46 6.46177 -75.47537 15336 ft 361 kts 299°
2026-04-29 03:46 6.47401 -75.49743 15642 ft 362 kts 298°
2026-04-29 03:46 6.48643 -75.51969 15666 ft 366 kts 299°
2026-04-29 03:46 6.49904 -75.54179 15684 ft 363 kts 300°
2026-04-29 03:47 6.51172 -75.56374 15688 ft 363 kts 300°
2026-04-29 03:47 6.52453 -75.58584 15856 ft 369 kts 300°
2026-04-29 03:47 6.53752 -75.60824 16554 ft 371 kts 300°
2026-04-29 03:47 6.55049 -75.63061 17356 ft 371 kts 300°
2026-04-29 03:48 6.56354 -75.65313 18030 ft 374 kts 300°
2026-04-29 03:48 6.57673 -75.67590 18644 ft 379 kts 300°
2026-04-29 03:48 6.59007 -75.69894 19256 ft 383 kts 300°
2026-04-29 03:48 6.60354 -75.72221 19879 ft 386 kts 300°
2026-04-29 03:49 6.61713 -75.74570 20472 ft 390 kts 300°
2026-04-29 03:49 6.63082 -75.76936 21050 ft 393 kts 300°
2026-04-29 03:49 6.64448 -75.79296 21601 ft 397 kts 300°
2026-04-29 03:49 6.65842 -75.81706 22144 ft 400 kts 300°
2026-04-29 03:50 6.67247 -75.84136 22674 ft 403 kts 300°
2026-04-29 03:50 6.68666 -75.86589 23165 ft 407 kts 300°
2026-04-29 03:50 6.70093 -75.89057 23663 ft 410 kts 300°
2026-04-29 03:50 6.71531 -75.91545 24140 ft 413 kts 300°
2026-04-29 03:51 6.72980 -75.94051 24606 ft 416 kts 300°
2026-04-29 03:51 6.74668 -75.96421 25018 ft 420 kts 314°
2026-04-29 03:51 6.76756 -75.98487 25492 ft 422 kts 316°
2026-04-29 03:51 6.78895 -76.00531 25923 ft 425 kts 316°
2026-04-29 03:52 6.81050 -76.02582 26318 ft 428 kts 316°
2026-04-29 03:52 6.83217 -76.04653 26717 ft 431 kts 316°
2026-04-29 03:52 6.85363 -76.06721 27099 ft 433 kts 316°
2026-04-29 03:52 6.87541 -76.08833 27493 ft 436 kts 315°
2026-04-29 03:53 6.89725 -76.10961 27855 ft 439 kts 315°
2026-04-29 03:53 6.91922 -76.13107 28207 ft 441 kts 315°
2026-04-29 03:53 6.94126 -76.15264 28560 ft 443 kts 315°
2026-04-29 03:53 6.96345 -76.17436 28903 ft 446 kts 315°
2026-04-29 03:54 6.98575 -76.19620 29228 ft 448 kts 315°
2026-04-29 03:54 7.00815 -76.21813 29544 ft 450 kts 315°
2026-04-29 03:54 7.03072 -76.24023 29856 ft 453 kts 315°
2026-04-29 03:54 7.05333 -76.26238 30154 ft 455 kts 315°
2026-04-29 03:55 7.07608 -76.28466 30453 ft 457 kts 315°
2026-04-29 03:55 7.09861 -76.30673 30734 ft 459 kts 315°
2026-04-29 03:55 7.12152 -76.32916 31019 ft 460 kts 315°
2026-04-29 03:55 7.14446 -76.35164 31383 ft 460 kts 315°
2026-04-29 03:56 7.16734 -76.37406 31802 ft 458 kts 315°
2026-04-29 03:56 7.19012 -76.39638 32189 ft 456 kts 315°
2026-04-29 03:56 7.21284 -76.41865 32517 ft 456 kts 315°
2026-04-29 03:56 7.23561 -76.44097 32833 ft 456 kts 315°
2026-04-29 03:57 7.25829 -76.46321 33180 ft 455 kts 315°
2026-04-29 03:57 7.28102 -76.48550 33525 ft 454 kts 315°
2026-04-29 03:57 7.30363 -76.50767 33839 ft 454 kts 315°
2026-04-29 03:57 7.32624 -76.52985 34135 ft 453 kts 315°
2026-04-29 03:58 7.34882 -76.55200 34436 ft 453 kts 315°
2026-04-29 03:58 7.37136 -76.57411 34750 ft 452 kts 315°
2026-04-29 03:58 7.39387 -76.59621 35038 ft 451 kts 315°
2026-04-29 03:58 7.41634 -76.61826 35310 ft 451 kts 315°
2026-04-29 03:59 7.43879 -76.64030 35586 ft 450 kts 315°
2026-04-29 03:59 7.45364 -76.65488 35770 ft 450 kts 315°
2026-04-29 03:59 7.47602 -76.67685 36033 ft 449 kts 315°
2026-04-29 03:59 7.49845 -76.69888 36276 ft 449 kts 315°
2026-04-29 04:00 7.52082 -76.72085 36498 ft 449 kts 315°
2026-04-29 04:00 7.54320 -76.74284 36714 ft 449 kts 315°
2026-04-29 04:00 7.56557 -76.76481 36938 ft 449 kts 315°
2026-04-29 04:00 7.58794 -76.78679 37154 ft 449 kts 315°
2026-04-29 04:01 7.61032 -76.80879 37366 ft 449 kts 315°
2026-04-29 04:01 7.63274 -76.83083 37553 ft 449 kts 315°
2026-04-29 04:01 7.65512 -76.85283 37751 ft 449 kts 315°
2026-04-29 04:01 7.67746 -76.87480 37940 ft 449 kts 315°
2026-04-29 04:02 7.72219 -76.91879 37996 ft 453 kts 315°
2026-04-29 04:02 7.76713 -76.96300 37995 ft 449 kts 315°
2026-04-29 04:03 7.81166 -77.00683 37996 ft 446 kts 315°
2026-04-29 04:03 7.85594 -77.05041 37999 ft 443 kts 315°
2026-04-29 04:04 7.90002 -77.09383 38002 ft 442 kts 315°
2026-04-29 04:04 7.94406 -77.13722 38005 ft 443 kts 315°
2026-04-29 04:05 7.98818 -77.18070 38003 ft 445 kts 315°
2026-04-29 04:05 8.02676 -77.22928 38008 ft 445 kts 299°
2026-04-29 04:06 8.05017 -77.28706 38017 ft 447 kts 288°
2026-04-29 04:06 8.06918 -77.34692 38010 ft 449 kts 287°
2026-04-29 04:07 8.08819 -77.40670 38003 ft 451 kts 288°
2026-04-29 04:07 8.10775 -77.46699 38000 ft 453 kts 288°
2026-04-29 04:08 8.12752 -77.52736 38000 ft 453 kts 288°
2026-04-29 04:08 8.14733 -77.58777 37999 ft 453 kts 288°
2026-04-29 04:09 8.16709 -77.64808 37999 ft 452 kts 288°
2026-04-29 04:09 8.18680 -77.70828 38000 ft 451 kts 288°
2026-04-29 04:10 8.20640 -77.76822 37999 ft 449 kts 288°
2026-04-29 04:10 8.22595 -77.82801 38000 ft 448 kts 288°
2026-04-29 04:11 8.24543 -77.88765 38000 ft 447 kts 288°
2026-04-29 04:11 8.26486 -77.94714 38001 ft 446 kts 288°
2026-04-29 04:12 8.28426 -78.00659 38001 ft 445 kts 288°
2026-04-29 04:12 8.30363 -78.06597 38002 ft 445 kts 288°
2026-04-29 04:13 8.32297 -78.12530 38001 ft 445 kts 288°
2026-04-29 04:13 8.34220 -78.18432 38003 ft 446 kts 288°
2026-04-29 04:14 8.36157 -78.24379 38002 ft 446 kts 288°
2026-04-29 04:14 8.38098 -78.30342 38002 ft 447 kts 288°
2026-04-29 04:15 8.40039 -78.36312 38002 ft 448 kts 288°
2026-04-29 04:15 8.41984 -78.42293 38002 ft 448 kts 288°
2026-04-29 04:16 8.43930 -78.48283 38000 ft 449 kts 288°
2026-04-29 04:16 8.45879 -78.54285 38002 ft 450 kts 288°
2026-04-29 04:17 8.47829 -78.60293 38001 ft 450 kts 288°
2026-04-29 04:17 8.49777 -78.66299 38001 ft 450 kts 288°
2026-04-29 04:18 8.51725 -78.72309 38001 ft 450 kts 288°
2026-04-29 04:18 8.53669 -78.78308 38001 ft 449 kts 288°
2026-04-29 04:19 8.55612 -78.84307 38001 ft 449 kts 288°
2026-04-29 04:19 8.57550 -78.90297 38001 ft 448 kts 288°
2026-04-29 04:20 8.59486 -78.96283 38001 ft 448 kts 288°
2026-04-29 04:20 8.61421 -79.02269 38001 ft 448 kts 288°
2026-04-29 04:21 8.63352 -79.08246 38001 ft 447 kts 288°
2026-04-29 04:21 8.65279 -79.14216 38001 ft 447 kts 288°
2026-04-29 04:22 8.67206 -79.20188 38001 ft 447 kts 288°
2026-04-29 04:22 8.69130 -79.26154 38001 ft 447 kts 288°
2026-04-29 04:23 8.71020 -79.32018 38002 ft 447 kts 288°
2026-04-29 04:23 8.72929 -79.37946 38002 ft 447 kts 288°
2026-04-29 04:24 8.74852 -79.43919 38002 ft 447 kts 288°
2026-04-29 04:24 8.76775 -79.49898 38002 ft 447 kts 288°
2026-04-29 04:25 8.78692 -79.55875 38002 ft 447 kts 287°
2026-04-29 04:25 8.80114 -79.61989 38009 ft 447 kts 281°
2026-04-29 04:26 8.81284 -79.68163 38001 ft 447 kts 280°
2026-04-29 04:26 8.82470 -79.74360 38002 ft 448 kts 281°
2026-04-29 04:27 8.83689 -79.80529 38002 ft 448 kts 281°
2026-04-29 04:27 8.84927 -79.86704 38001 ft 448 kts 281°
2026-04-29 04:28 8.86166 -79.92877 38001 ft 448 kts 281°
2026-04-29 04:28 8.87403 -79.99055 38002 ft 448 kts 281°
2026-04-29 04:29 8.88639 -80.05232 38001 ft 448 kts 281°
2026-04-29 04:29 8.89873 -80.11407 38001 ft 448 kts 281°
2026-04-29 04:30 8.91106 -80.17584 38001 ft 448 kts 281°
2026-04-29 04:31 8.92953 -80.26843 38001 ft 448 kts 281°
2026-04-29 04:31 8.94182 -80.33014 38001 ft 447 kts 281°
2026-04-29 04:32 8.95410 -80.39185 38001 ft 447 kts 281°
2026-04-29 04:32 8.96637 -80.45354 38002 ft 447 kts 281°
2026-04-29 04:33 8.97854 -80.51477 38001 ft 447 kts 281°
2026-04-29 04:33 8.99086 -80.57687 38002 ft 447 kts 281°
2026-04-29 04:34 9.00300 -80.63808 38004 ft 447 kts 281°
2026-04-29 04:34 9.01522 -80.69972 38000 ft 447 kts 281°
2026-04-29 04:35 9.02743 -80.76142 38001 ft 447 kts 281°
2026-04-29 04:35 9.03962 -80.82305 38001 ft 447 kts 281°
2026-04-29 04:36 9.05179 -80.88469 38001 ft 447 kts 281°
2026-04-29 04:36 9.06397 -80.94638 38001 ft 447 kts 281°
2026-04-29 04:37 9.07613 -81.00804 38001 ft 447 kts 281°
2026-04-29 04:37 9.08839 -81.06965 38001 ft 447 kts 281°
2026-04-29 04:38 9.10149 -81.13113 38001 ft 447 kts 282°
2026-04-29 04:38 9.11478 -81.19262 38001 ft 447 kts 282°
2026-04-29 04:39 9.12796 -81.25406 38001 ft 447 kts 282°
2026-04-29 04:39 9.14107 -81.31557 38001 ft 447 kts 282°
2026-04-29 04:40 9.15416 -81.37709 38001 ft 447 kts 282°
2026-04-29 04:40 9.16715 -81.43823 38001 ft 447 kts 282°
2026-04-29 04:41 9.18021 -81.49977 38001 ft 447 kts 282°
2026-04-29 04:41 9.19326 -81.56129 38001 ft 447 kts 282°
2026-04-29 04:42 9.20632 -81.62290 38001 ft 447 kts 282°
2026-04-29 04:42 9.21936 -81.68447 38001 ft 447 kts 282°
2026-04-29 04:43 9.23239 -81.74604 38001 ft 447 kts 282°
2026-04-29 04:43 9.24322 -81.79724 38001 ft 447 kts 282°
2026-04-29 04:44 9.25622 -81.85881 38001 ft 447 kts 282°
2026-04-29 04:44 9.26922 -81.92039 38001 ft 447 kts 282°
2026-04-29 04:45 9.28222 -81.98203 38001 ft 447 kts 282°
2026-04-29 04:45 9.29518 -82.04358 38001 ft 447 kts 282°
2026-04-29 04:46 9.30806 -82.10477 38001 ft 447 kts 282°
2026-04-29 04:46 9.32102 -82.16638 38002 ft 447 kts 282°
2026-04-29 04:47 9.33395 -82.22791 38001 ft 447 kts 282°
2026-04-29 04:47 9.34964 -82.28871 38008 ft 447 kts 288°
2026-04-29 04:48 9.36971 -82.34841 38003 ft 447 kts 289°
2026-04-29 04:48 9.38978 -82.40754 38001 ft 447 kts 288°
2026-04-29 04:49 9.40956 -82.46724 38001 ft 447 kts 288°
2026-04-29 04:49 9.42911 -82.52700 38001 ft 447 kts 288°
2026-04-29 04:49 9.43893 -82.55710 37586 ft 453 kts 288°
2026-04-29 04:50 9.44882 -82.58737 37109 ft 452 kts 288°
2026-04-29 04:50 9.45865 -82.61750 36651 ft 448 kts 288°
2026-04-29 04:50 9.46838 -82.64730 36249 ft 444 kts 288°
2026-04-29 04:50 9.47802 -82.67682 35834 ft 440 kts 288°
2026-04-29 04:51 9.48759 -82.70614 35403 ft 436 kts 288°
2026-04-29 04:51 9.49707 -82.73520 34977 ft 433 kts 288°
2026-04-29 04:51 9.50646 -82.76399 34556 ft 430 kts 288°
2026-04-29 04:51 9.51580 -82.79262 34137 ft 426 kts 288°
2026-04-29 04:52 9.52508 -82.82110 33718 ft 423 kts 288°
2026-04-29 04:52 9.53415 -82.84894 33309 ft 421 kts 288°
2026-04-29 04:52 9.54317 -82.87703 32905 ft 418 kts 286°
2026-04-29 04:52 9.55100 -82.90530 32485 ft 415 kts 284°
2026-04-29 04:53 9.55810 -82.93358 32071 ft 412 kts 283°
2026-04-29 04:53 9.56500 -82.96166 31665 ft 409 kts 283°
2026-04-29 04:53 9.57192 -82.98954 31262 ft 407 kts 284°
2026-04-29 04:53 9.57891 -83.01725 30858 ft 404 kts 284°
2026-04-29 04:54 9.58591 -83.04470 30468 ft 401 kts 284°
2026-04-29 04:54 9.59292 -83.07196 30077 ft 399 kts 284°
2026-04-29 04:54 9.59988 -83.09907 29691 ft 396 kts 284°
2026-04-29 04:54 9.60683 -83.12596 29282 ft 393 kts 285°
2026-04-29 04:55 9.61502 -83.15233 28872 ft 391 kts 289°
2026-04-29 04:55 9.62421 -83.17815 28468 ft 388 kts 290°
2026-04-29 04:55 9.63367 -83.20372 28065 ft 386 kts 290°
2026-04-29 04:55 9.64304 -83.22907 27665 ft 383 kts 290°
2026-04-29 04:56 9.65227 -83.25435 27264 ft 381 kts 290°
2026-04-29 04:56 9.66134 -83.27950 26869 ft 379 kts 289°
2026-04-29 04:56 9.67028 -83.30449 26470 ft 376 kts 289°
2026-04-29 04:56 9.67901 -83.32903 26080 ft 374 kts 289°
2026-04-29 04:57 9.68778 -83.35372 25690 ft 372 kts 289°
2026-04-29 04:57 9.69652 -83.37836 25300 ft 369 kts 289°
2026-04-29 04:57 9.70515 -83.40272 24921 ft 367 kts 289°
2026-04-29 04:57 9.71377 -83.42702 24539 ft 365 kts 289°
2026-04-29 04:58 9.72233 -83.45117 24159 ft 362 kts 289°
2026-04-29 04:58 9.73083 -83.47515 23777 ft 360 kts 289°
2026-04-29 04:58 9.73927 -83.49896 23408 ft 358 kts 289°
2026-04-29 04:58 9.74755 -83.52270 23029 ft 355 kts 286°
2026-04-29 04:59 9.75070 -83.54725 22688 ft 350 kts 267°
2026-04-29 04:59 9.74902 -83.57174 22357 ft 347 kts 265°
2026-04-29 04:59 9.74692 -83.59604 21995 ft 345 kts 264°
2026-04-29 04:59 9.74491 -83.62021 21634 ft 343 kts 265°
2026-04-29 05:00 9.74309 -83.64424 21276 ft 341 kts 265°
2026-04-29 05:00 9.74136 -83.66815 20917 ft 339 kts 265°
2026-04-29 05:00 9.73967 -83.69195 20568 ft 337 kts 265°
2026-04-29 05:00 9.73799 -83.71558 20213 ft 335 kts 265°
2026-04-29 05:01 9.73631 -83.73909 19860 ft 333 kts 265°
2026-04-29 05:01 9.73466 -83.76220 19465 ft 333 kts 265°
2026-04-29 05:01 9.73298 -83.78561 19085 ft 332 kts 265°
2026-04-29 05:01 9.73131 -83.80891 18722 ft 331 kts 265°
2026-04-29 05:02 9.72964 -83.83210 18364 ft 329 kts 265°
2026-04-29 05:02 9.72797 -83.85513 18015 ft 327 kts 265°
2026-04-29 05:02 9.72622 -83.87804 17674 ft 325 kts 265°
2026-04-29 05:02 9.72446 -83.90077 17332 ft 323 kts 265°
2026-04-29 05:03 9.72271 -83.92341 16991 ft 321 kts 265°
2026-04-29 05:03 9.72099 -83.94556 16660 ft 319 kts 265°
2026-04-29 05:03 9.71927 -83.96791 16325 ft 317 kts 265°
2026-04-29 05:03 9.71756 -83.99013 15992 ft 315 kts 265°
2026-04-29 05:04 9.71585 -84.01222 15659 ft 313 kts 265°
2026-04-29 05:04 9.71415 -84.03419 15329 ft 312 kts 265°
2026-04-29 05:04 9.71246 -84.05602 15005 ft 310 kts 265°
2026-04-29 05:04 9.71077 -84.07772 14674 ft 308 kts 265°
2026-04-29 05:05 9.70910 -84.09929 14352 ft 306 kts 265°
2026-04-29 05:05 9.70744 -84.12078 14031 ft 305 kts 265°
2026-04-29 05:05 9.70578 -84.14214 13706 ft 303 kts 265°
2026-04-29 05:05 9.70413 -84.16336 13383 ft 302 kts 265°
2026-04-29 05:06 9.70248 -84.18450 13064 ft 300 kts 265°
2026-04-29 05:06 9.70085 -84.20553 12753 ft 298 kts 265°
2026-04-29 05:06 9.69979 -84.22647 12425 ft 297 kts 274°
2026-04-29 05:06 9.70510 -84.24631 12125 ft 296 kts 292°
2026-04-29 05:07 9.71341 -84.26532 11810 ft 294 kts 294°
2026-04-29 05:07 9.72189 -84.28413 11496 ft 293 kts 294°
2026-04-29 05:07 9.73033 -84.30289 11172 ft 292 kts 294°
2026-04-29 05:07 9.73867 -84.32162 10860 ft 291 kts 294°
2026-04-29 05:08 9.74694 -84.34028 10570 ft 289 kts 294°
2026-04-29 05:08 9.75500 -84.35858 10453 ft 280 kts 293°
2026-04-29 05:08 9.76283 -84.37640 10317 ft 273 kts 293°
2026-04-29 05:08 9.77043 -84.39372 10197 ft 265 kts 293°
2026-04-29 05:09 9.77781 -84.41054 10088 ft 257 kts 293°
2026-04-29 05:09 9.78497 -84.42687 9975 ft 250 kts 293°
2026-04-29 05:09 9.79386 -84.44158 9830 ft 244 kts 317°
2026-04-29 05:09 9.80828 -84.45026 9561 ft 244 kts 340°
2026-04-29 05:10 9.82467 -84.45508 9252 ft 247 kts 345°
2026-04-29 05:10 9.84141 -84.45932 8920 ft 249 kts 345°
2026-04-29 05:10 9.85832 -84.46365 8577 ft 252 kts 345°
2026-04-29 05:10 9.87565 -84.46670 8195 ft 256 kts
2026-04-29 05:11 9.89256 -84.46149 7861 ft 258 kts 33°
2026-04-29 05:11 9.90459 -84.44821 7506 ft 259 kts 62°
2026-04-29 05:11 9.91173 -84.43166 7183 ft 261 kts 70°
2026-04-29 05:11 9.91794 -84.41428 6813 ft 264 kts 70°
2026-04-29 05:12 9.92419 -84.39670 6446 ft 266 kts 71°
2026-04-29 05:12 9.93054 -84.37897 6077 ft 269 kts 70°
2026-04-29 05:12 9.93720 -84.36125 5800 ft 267 kts 69°
2026-04-29 05:12 9.94378 -84.34378 5465 ft 260 kts 69°
2026-04-29 05:13 9.94999 -84.32705 5133 ft 247 kts 70°
2026-04-29 05:13 9.95588 -84.31116 4815 ft 234 kts 70°
2026-04-29 05:13 9.96145 -84.29616 4514 ft 219 kts 70°
2026-04-29 05:13 9.96650 -84.28255 4226 ft 195 kts 70°
2026-04-29 05:14 9.97102 -84.27037 3980 ft 173 kts 70°
2026-04-29 05:14 9.97508 -84.25945 3768 ft 160 kts 70°
2026-04-29 05:14 9.97899 -84.24891 3560 ft 160 kts 70°
2026-04-29 05:14 9.98292 -84.23833 3354 ft 160 kts 70°
2026-04-29 05:15 9.98685 -84.22774 3096 ft 158 kts 70°
2026-04-29 05:15 9.99067 -84.21754 2989 ft 147 kts 69°
2026-04-29 05:15 9.99387 -84.20893 3021 ft 110 kts 70°
2026-04-29 05:15 9.99520 -84.20546 3033 ft 32 kts 70°
2026-04-29 05:16 9.99609 -84.20439 3035 ft 15 kts 359°
2026-04-29 05:16 9.99672 -84.20383 3034 ft 12 kts 68°
2026-04-29 05:16 9.99701 -84.20313 3034 ft 8 kts 52°
2026-04-29 05:16 9.99737 -84.20309 3036 ft 4 kts 342°
2026-04-29 05:17 9.99756 -84.20315 3034 ft 0 kts 340°